GW3133 Weather Reports


Display with metric or nautical units.
time (UTC)temp
F
wind
direction
speed
MPH
gust
MPH
rain 1hr
in
rain 24hr
in
rain mn
in
humidity
%
barometer
mb
20260504100418 56 268 2.0 5.0 0.00 0.00 0.00 71 1017.2
20260504090118 57 249 7.0 18.0 0.00 0.00 0.00 71 1016.9
20260504081618 57 251 7.0 17.0 0.00 0.00 0.00 72 1017.0
20260504060117 56 249 7.0 14.0 0.00 0.00 0.00 74 1017.2
20260504050717 55 250 3.0 6.0 0.00 0.00 0.00 70 1017.1
20260504045817 55 260 3.0 6.0 0.00 0.00 0.00 69 1017.1
20260504044017 55 261 3.0 6.0 0.00 0.00 0.00 66 1017.2
20260504043117 55 269 2.0 5.0 0.00 0.00 0.00 67 1017.3
20260504042217 55 265 2.0 5.0 0.00 0.00 0.00 68 1017.1
20260504041317 55 266 2.0 7.0 0.00 0.00 0.00 70 1017.1
20260504040417 55 266 2.0 5.0 0.00 0.00 0.00 70 1017.0
20260504035517 55 263 2.0 6.0 0.00 0.00 0.00 69 1016.9
20260504034617 55 272 2.0 5.0 0.00 0.00 0.00 68 1016.8
20260504033717 55 266 2.0 5.0 0.00 0.00 0.00 69 1016.8
20260504030117 55 259 2.0 5.0 0.00 0.00 0.00 70 1016.4
20260504025217 55 254 2.0 6.0 0.00 0.00 0.00 69 1016.5
20260504024317 55 259 2.0 6.0 0.00 0.00 0.00 68 1016.4
20260504022517 55 264 2.0 5.0 0.00 0.00 0.00 68 1016.4
20260504021617 55 260 2.0 5.0 0.00 0.00 0.00 67 1016.3
20260504020717 54 261 3.0 5.0 0.00 0.00 0.00 68 1016.4
20260504015817 54 261 2.0 4.0 0.00 0.00 0.00 65 1016.4
20260504014916 54 257 2.0 3.0 0.00 0.00 0.00 66 1016.3
20260504014017 54 258 2.0 3.0 0.00 0.00 0.00 69 1016.3
20260504013117 54 258 1.0 2.0 0.00 0.00 0.00 69 1016.2
20260504012217 54 258 1.0 2.0 0.00 0.00 0.00 69 1016.1
20260504011317 55 258 2.0 4.0 0.00 0.00 0.00 67 1016.0
20260504010417 55 287 0.0 2.0 0.00 0.00 0.00 72 1016.0
20260504005517 56 289 0.0 1.0 0.00 0.00 0.00 67 1016.0
20260504004616 57 289 0.0 1.0 0.00 0.00 0.00 65 1016.0
20260504003716 57 289 0.0 1.0 0.00 0.00 0.00 61 1015.9
20260504002816 58 291 0.0 3.0 0.00 0.00 0.00 56 1015.8
20260504001916 59 298 1.0 4.0 0.00 0.00 0.00 52 1015.7
20260504001016 59 294 1.0 4.0 0.00 0.00 0.00 50 1015.7
20260504000117 59 293 1.0 4.0 0.00 0.00 0.00 51 1015.6
20260503234316 60 302 1.0 6.0 0.00 0.00 0.00 51 1015.3
20260503233416 60 297 1.0 5.0 0.00 0.00 0.00 47 1015.3
20260503232516 60 296 1.0 6.0 0.00 0.00 0.00 46 1015.4
20260503231616 60 291 1.0 7.0 0.00 0.00 0.00 43 1015.3
20260503230716 61 296 1.0 4.0 0.00 0.00 0.00 45 1015.4
20260503225816 61 300 1.0 4.0 0.00 0.00 0.00 45 1015.4
20260503224916 61 294 2.0 6.0 0.00 0.00 0.00 44 1015.4
20260503224016 62 290 3.0 9.0 0.00 0.00 0.00 41 1015.5
20260503222216 63 293 2.0 6.0 0.00 0.00 0.00 43 1015.4
20260503221317 62 289 3.0 11.0 0.00 0.00 0.00 42 1015.4
20260503220416 62 291 2.0 7.0 0.00 0.00 0.00 40 1015.4
20260503215516 63 298 2.0 4.0 0.00 0.00 0.00 41 1015.4
20260503214616 62 291 3.0 6.0 0.00 0.00 0.00 42 1015.4
20260503213716 62 293 3.0 8.0 0.00 0.00 0.00 43 1015.4
20260503212816 62 295 2.0 7.0 0.00 0.00 0.00 41 1015.4
20260503211916 62 294 3.0 7.0 0.00 0.00 0.00 43 1015.4
20260503211016 62 298 3.0 7.0 0.00 0.00 0.00 43 1015.4
20260503210116 62 301 3.0 9.0 0.00 0.00 0.00 45 1015.4
20260503205216 62 296 3.0 8.0 0.00 0.00 0.00 41 1015.4
20260503204316 62 305 3.0 10.0 0.00 0.00 0.00 42 1015.6
20260503203416 61 293 3.0 10.0 0.00 0.00 0.00 41 1015.5
20260503202516 62 297 3.0 10.0 0.00 0.00 0.00 41 1015.6
20260503200716 61 295 3.0 9.0 0.00 0.00 0.00 43 1015.9
20260503194340 61 295 2.0 9.0 0.00 0.00 0.00 45 1016.1
20260503193441 61 291 2.0 7.0 0.00 0.00 0.00 44 1016.3
20260503192541 60 292 2.0 8.0 0.00 0.00 0.00 44 1016.4
20260503191640 60 302 3.0 10.0 0.00 0.00 0.00 42 1016.6
20260503185841 60 289 3.0 10.0 0.00 0.00 0.00 43 1016.6
20260503184041 60 356 3.0 11.0 0.00 0.00 0.00 42 1017.0
20260503183140 59 354 2.0 6.0 0.00 0.00 0.00 43 1017.1
20260503182241 59 7 3.0 11.0 0.00 0.00 0.00 44 1017.1
20260503181341 58 351 3.0 11.0 0.00 0.00 0.00 45 1017.2
20260503180441 58 22 4.0 11.0 0.00 0.00 0.00 45 1017.2
20260503175541 58 5 3.0 11.0 0.00 0.00 0.00 44 1017.1
20260503174641 58 323 3.0 11.0 0.00 0.00 0.00 44 1017.3
20260503173741 58 2 3.0 10.0 0.00 0.00 0.00 46 1017.3
20260503172841 57 358 4.0 11.0 0.00 0.00 0.00 46 1017.4
20260503171941 57 348 3.0 11.0 0.00 0.00 0.00 43 1017.5
20260503171041 57 356 3.0 8.0 0.00 0.00 0.00 43 1017.5
20260503170141 56 14 5.0 10.0 0.00 0.00 0.00 45 1017.6
20260503150440 52 5 5.0 13.0 0.00 0.00 0.00 53 1018.1
20260503110140 46 343 5.0 15.0 0.00 0.00 0.00 72 1016.6